Weather in Findikli

Turkey     41°16′35″N   41°08′51″E
В апреле 2022 года жителям России запретили посещать сайт meteo.paraplan.net по решению Генеральной прокуратуры. Аудитория сайта уменьшилась в 10 раз. Владельцы сайта не видят смысла в поддержке погодного сервера в таких условиях. Сайт будет закрыт в октябре.
temp.,
°C
wind,
m/s
gust,
m/s
humid.,
%
clouds,
%
prec.,
mm/h
press.,
hPa
HPBL,
m
4 october, tue
tue400:00+16ene348485 0.6 1011217
03:00+15n129494 1.3 1013286
06:00+15w1193100 1.3 1013239
09:00+17nw2292100 2.0 1014278
12:00+17nnw229186 0.4 1016230
15:00+16wnw119677 0.7 1016176
18:00+16wsw129489 0.3 1018344
21:00+16wsw2290100 0.4 1020229
5 october, wed
wed500:00+16nnw0184100 0.1 1020210
03:00+16wsw118099 0.1 1020152
06:00+16sw2291100 0.2 1021347
09:00+16nw2298100 1.2 1023300
12:00+16wnw3399100 1.9 1023236
15:00+16wnw3398100 5.5 1024271
18:00+15wnw3396100 2.9 1025341
21:00+15nw2294100 4.6 1026304
6 october, thu
thu600:00+14ssw0196100 0.6 1025121
03:00+15nnw1189100 0.7 1025199
06:00+15wnw008973 0.0 1024193
09:00+15nw119084 0.1 1024200
12:00+16nw218860 0.2 1024257
15:00+16w118869 0.4 1023293
18:00+15wsw2290100 0.9 1024297
21:00+15w239199 1.8 1024300
7 october, fri
fri700:00+15w2290100 0.5 1024306
03:00+14w129285 0.6 1023259
06:00+14wsw129077 0.0 1022342
09:00+15wnw229067 0.1 1022297
12:00+15wnw228775 0.1 1021322
15:00+15wnw118347 0.1 1019267
18:00+15wsw118644 0.2 1019359
21:00+14sw118767 0.3 1019352
8 october, sat
sat800:00+15nne018199 0.0 1018313
03:00+15n118244 0.1 1017294
06:00+15nnw118093 0.1 1016237
09:00+17nnw2279100 0.1 1015327
12:00+19nw32712 0.0 1015393
15:00+18nw317564 0.0 1014289
18:00+17ne1175100 0.1 1014148
21:00+18ene3469100 0.1 1013174